Time,TemperatureF,DewpointF,PressureIn,WindDirection,WindDirectionDegrees,WindSpeedMPH,WindSpeedGustMPH,Humidity,HourlyPrecipIn,Conditions,Clouds,dailyrainin,SoftwareType,DateUTC
2013-10-05 00:00:00,58.0,0.0,30.22,SSW,203,5.0,10.0,16,-99.99,,,-99.99,,2013-10-05 07:00:00,
2013-10-05 00:08:00,58.0,0.0,30.22,WSW,237,8.0,12.0,18,-99.99,,,-99.99,,2013-10-05 07:08:00,
2013-10-05 00:16:00,59.0,0.0,30.22,WSW,237,7.0,12.0,20,-99.99,,,-99.99,,2013-10-05 07:16:00,
2013-10-05 00:24:00,59.0,0.0,30.22,SW,234,9.0,9.0,22,-99.99,,,-99.99,,2013-10-05 07:24:00,
2013-10-05 00:32:00,58.0,0.0,30.22,NW,322,1.0,12.0,16,-99.99,,,-99.99,,2013-10-05 07:32:00,
2013-10-05 00:40:00,57.0,0.0,30.22,SW,218,7.0,7.0,18,-99.99,,,-99.99,,2013-10-05 07:40:00,
2013-10-05 00:48:00,59.0,0.0,30.22,WSW,237,5.0,8.0,19,-99.99,,,-99.99,,2013-10-05 07:48:00,
2013-10-05 00:56:00,59.0,0.0,30.22,WSW,240,3.0,8.0,19,-99.99,,,-99.99,,2013-10-05 07:56:00,
2013-10-05 01:04:00,58.0,0.0,30.22,WSW,248,5.0,7.0,17,-99.99,,,-99.99,,2013-10-05 08:04:00,
2013-10-05 01:12:00,58.0,0.0,30.22,WSW,241,5.0,7.0,17,-99.99,,,-99.99,,2013-10-05 08:12:00,
2013-10-05 01:20:00,60.0,0.0,30.22,SSW,209,10.0,15.0,16,-99.99,,,-99.99,,2013-10-05 08:20:00,
2013-10-05 01:28:00,59.0,0.0,30.23,South,185,1.0,15.0,16,-99.99,,,-99.99,,2013-10-05 08:28:00,
2013-10-05 01:36:00,60.0,0.0,30.23,South,177,7.0,13.0,17,-99.99,,,-99.99,,2013-10-05 08:36:00,
2013-10-05 01:44:00,61.0,0.0,30.23,SW,228,6.0,9.0,16,-99.99,,,-99.99,,2013-10-05 08:44:00,
2013-10-05 01:52:00,60.0,0.0,30.24,SSW,213,8.0,8.0,20,-99.99,,,-99.99,,2013-10-05 08:52:00,
2013-10-05 02:00:00,62.0,0.0,30.24,SE,143,3.0,9.0,16,-99.99,,,-99.99,,2013-10-05 09:00:00,
2013-10-05 02:08:00,63.0,0.0,30.23,SE,136,8.0,14.0,17,-99.99,,,-99.99,,2013-10-05 09:08:00,
2013-10-05 02:16:00,62.0,0.0,30.23,SE,142,9.0,20.0,15,-99.99,,,-99.99,,2013-10-05 09:16:00,
2013-10-05 02:24:00,62.0,0.0,30.24,SSW,197,8.0,16.0,18,-99.99,,,-99.99,,2013-10-05 09:24:00,
2013-10-05 02:32:00,60.0,0.0,30.24,WSW,251,1.0,14.0,17,-99.99,,,-99.99,,2013-10-05 09:32:00,
2013-10-05 02:40:00,58.0,0.0,30.24,SW,214,0.0,7.0,20,-99.99,,,-99.99,,2013-10-05 09:40:00,
2013-10-05 02:48:00,59.0,0.0,30.24,SSE,166,6.0,8.0,17,-99.99,,,-99.99,,2013-10-05 09:48:00,
2013-10-05 02:56:00,61.0,0.0,30.24,South,185,6.0,8.0,18,-99.99,,,-99.99,,2013-10-05 09:56:00,
2013-10-05 03:04:00,61.0,0.0,30.24,SSE,159,6.0,12.0,18,-99.99,,,-99.99,,2013-10-05 10:04:00,
2013-10-05 03:12:00,60.0,0.0,30.25,South,191,9.0,14.0,17,-99.99,,,-99.99,,2013-10-05 10:12:00,
2013-10-05 03:20:00,60.0,0.0,30.25,SSW,196,7.0,12.0,17,-99.99,,,-99.99,,2013-10-05 10:20:00,
2013-10-05 03:28:00,60.0,0.0,30.25,SW,224,8.0,12.0,23,-99.99,,,-99.99,,2013-10-05 10:28:00,
2013-10-05 03:36:00,60.0,0.0,30.25,SW,217,7.0,12.0,17,-99.99,,,-99.99,,2013-10-05 10:36:00,
2013-10-05 03:44:00,59.0,0.0,30.25,SW,221,8.0,12.0,18,-99.99,,,-99.99,,2013-10-05 10:44:00,
2013-10-05 03:52:00,60.0,0.0,30.25,SW,220,7.0,13.0,18,-99.99,,,-99.99,,2013-10-05 10:52:00,
2013-10-05 04:00:00,60.0,0.0,30.25,SW,214,14.0,17.0,20,-99.99,,,-99.99,,2013-10-05 11:00:00,
2013-10-05 04:08:00,61.0,0.0,30.25,SW,225,13.0,18.0,18,-99.99,,,-99.99,,2013-10-05 11:08:00,
2013-10-05 04:16:00,61.0,0.0,30.25,SSW,208,14.0,21.0,18,-99.99,,,-99.99,,2013-10-05 11:16:00,
2013-10-05 04:24:00,61.0,0.0,30.26,SW,220,14.0,22.0,19,-99.99,,,-99.99,,2013-10-05 11:24:00,
2013-10-05 04:32:00,62.0,0.0,30.26,SSW,204,13.0,23.0,18,-99.99,,,-99.99,,2013-10-05 11:32:00,
2013-10-05 04:40:00,60.0,0.0,30.26,SW,219,12.0,21.0,19,-99.99,,,-99.99,,2013-10-05 11:40:00,
2013-10-05 04:48:00,60.0,0.0,30.26,SSW,209,10.0,18.0,19,-99.99,,,-99.99,,2013-10-05 11:48:00,
2013-10-05 04:56:00,61.0,0.0,30.26,SW,222,10.0,18.0,18,-99.99,,,-99.99,,2013-10-05 11:56:00,
2013-10-05 05:04:00,59.0,0.0,30.27,WSW,255,9.0,18.0,21,-99.99,,,-99.99,,2013-10-05 12:04:00,
2013-10-05 05:12:00,58.0,0.0,30.27,WSW,258,8.0,13.0,20,-99.99,,,-99.99,,2013-10-05 12:12:00,
2013-10-05 05:20:00,58.0,0.0,30.27,WSW,251,12.0,14.0,20,-99.99,,,-99.99,,2013-10-05 12:20:00,
2013-10-05 05:28:00,58.0,0.0,30.27,WSW,257,9.0,14.0,22,-99.99,,,-99.99,,2013-10-05 12:28:00,
2013-10-05 05:36:00,59.0,0.0,30.28,WSW,246,8.0,15.0,23,-99.99,,,-99.99,,2013-10-05 12:36:00,
2013-10-05 05:44:00,58.0,0.0,30.28,WSW,249,10.0,15.0,20,-99.99,,,-99.99,,2013-10-05 12:44:00,
2013-10-05 05:52:00,58.0,0.0,30.28,WSW,256,8.0,13.0,20,-99.99,,,-99.99,,2013-10-05 12:52:00,
2013-10-05 06:00:00,58.0,0.0,30.29,WSW,250,8.0,14.0,22,-99.99,,,-99.99,,2013-10-05 13:00:00,
2013-10-05 06:08:00,57.0,0.0,30.29,WSW,251,9.0,13.0,24,-99.99,,,-99.99,,2013-10-05 13:08:00,
2013-10-05 06:16:00,58.0,0.0,30.29,WSW,244,6.0,12.0,20,-99.99,,,-99.99,,2013-10-05 13:16:00,
2013-10-05 06:24:00,57.0,0.0,30.29,West,260,8.0,10.0,23,-99.99,,,-99.99,,2013-10-05 13:24:00,
2013-10-05 06:32:00,57.0,0.0,30.29,West,261,5.0,12.0,24,-99.99,,,-99.99,,2013-10-05 13:32:00,
2013-10-05 06:40:00,58.0,0.0,30.29,West,263,8.0,12.0,22,-99.99,,,-99.99,,2013-10-05 13:40:00,
2013-10-05 06:48:00,57.0,0.0,30.30,West,260,8.0,12.0,24,-99.99,,,-99.99,,2013-10-05 13:48:00,
2013-10-05 06:56:00,57.0,0.0,30.30,West,262,8.0,10.0,21,-99.99,,,-99.99,,2013-10-05 13:56:00,
2013-10-05 07:04:00,58.0,0.0,30.30,SW,225,2.0,8.0,22,-99.99,,,-99.99,,2013-10-05 14:04:00,
2013-10-05 07:12:00,58.0,0.0,30.30,SSW,200,6.0,7.0,20,-99.99,,,-99.99,,2013-10-05 14:12:00,
2013-10-05 07:20:00,59.0,0.0,30.31,SW,220,6.0,9.0,21,-99.99,,,-99.99,,2013-10-05 14:20:00,
2013-10-05 07:28:00,59.0,0.0,30.30,SW,235,5.0,9.0,21,-99.99,,,-99.99,,2013-10-05 14:28:00,
2013-10-05 07:36:00,60.0,0.0,30.31,WSW,243,7.0,10.0,22,-99.99,,,-99.99,,2013-10-05 14:36:00,
2013-10-05 07:44:00,60.0,0.0,30.31,SW,225,5.0,10.0,22,-99.99,,,-99.99,,2013-10-05 14:44:00,
2013-10-05 07:52:00,61.0,0.0,30.31,WSW,246,8.0,12.0,21,-99.99,,,-99.99,,2013-10-05 14:52:00,
2013-10-05 08:00:00,61.0,0.0,30.31,SW,223,9.0,12.0,18,-99.99,,,-99.99,,2013-10-05 15:00:00,
2013-10-05 08:08:00,62.0,0.0,30.32,WSW,243,7.0,14.0,20,-99.99,,,-99.99,,2013-10-05 15:08:00,
2013-10-05 08:16:00,62.0,0.0,30.32,SW,223,12.0,14.0,17,-99.99,,,-99.99,,2013-10-05 15:16:00,
2013-10-05 08:24:00,63.0,0.0,30.32,SW,227,12.0,14.0,19,-99.99,,,-99.99,,2013-10-05 15:24:00,
2013-10-05 08:32:00,63.0,0.0,30.32,SW,230,12.0,17.0,19,-99.99,,,-99.99,,2013-10-05 15:32:00,
2013-10-05 08:40:00,64.0,0.0,30.32,WSW,238,7.0,18.0,17,-99.99,,,-99.99,,2013-10-05 15:40:00,
2013-10-05 08:48:00,64.0,0.0,30.33,SSW,211,12.0,16.0,18,-99.99,,,-99.99,,2013-10-05 15:48:00,
2013-10-05 08:56:00,65.0,0.0,30.33,SW,220,10.0,16.0,16,-99.99,,,-99.99,,2013-10-05 15:56:00,
2013-10-05 09:04:00,66.0,0.0,30.33,SW,236,10.0,14.0,16,-99.99,,,-99.99,,2013-10-05 16:04:00,
2013-10-05 09:12:00,65.0,0.0,30.33,SW,230,12.0,16.0,18,-99.99,,,-99.99,,2013-10-05 16:12:00,
2013-10-05 09:20:00,66.0,0.0,30.33,SW,235,13.0,16.0,20,-99.99,,,-99.99,,2013-10-05 16:20:00,
2013-10-05 09:28:00,66.0,0.0,30.34,West,260,12.0,18.0,15,-99.99,,,-99.99,,2013-10-05 16:28:00,
2013-10-05 09:36:00,67.0,0.0,30.34,WSW,248,10.0,17.0,17,-99.99,,,-99.99,,2013-10-05 16:36:00,
2013-10-05 09:44:00,67.0,0.0,30.34,WSW,243,13.0,20.0,17,-99.99,,,-99.99,,2013-10-05 16:44:00,
2013-10-05 09:52:00,68.0,0.0,30.34,SW,222,21.0,23.0,17,-99.99,,,-99.99,,2013-10-05 16:52:00,
2013-10-05 10:00:00,68.0,0.0,30.34,SW,228,17.0,23.0,16,-99.99,,,-99.99,,2013-10-05 17:00:00,
2013-10-05 10:08:00,68.0,0.0,30.33,SW,221,14.0,23.0,14,-99.99,,,-99.99,,2013-10-05 17:08:00,
2013-10-05 10:16:00,68.0,0.0,30.33,SW,236,17.0,23.0,16,-99.99,,,-99.99,,2013-10-05 17:16:00,
2013-10-05 10:24:00,69.0,0.0,30.33,SW,219,21.0,25.0,17,-99.99,,,-99.99,,2013-10-05 17:24:00,
2013-10-05 10:32:00,68.0,0.0,30.33,SW,227,9.0,23.0,13,-99.99,,,-99.99,,2013-10-05 17:32:00,
2013-10-05 10:40:00,69.0,0.0,30.34,SW,214,14.0,29.0,17,-99.99,,,-99.99,,2013-10-05 17:40:00,
2013-10-05 10:48:00,70.0,0.0,30.33,WSW,241,13.0,24.0,14,-99.99,,,-99.99,,2013-10-05 17:48:00,
2013-10-05 10:56:00,70.0,0.0,30.33,West,260,12.0,22.0,14,-99.99,,,-99.99,,2013-10-05 17:56:00,
2013-10-05 11:04:00,70.0,0.0,30.33,SSW,203,14.0,22.0,12,-99.99,,,-99.99,,2013-10-05 18:04:00,
2013-10-05 11:12:00,70.0,0.0,30.33,WSW,244,14.0,23.0,13,-99.99,,,-99.99,,2013-10-05 18:12:00,
2013-10-05 11:20:00,71.0,0.0,30.33,SW,227,15.0,20.0,11,-99.99,,,-99.99,,2013-10-05 18:20:00,
2013-10-05 11:28:00,71.0,0.0,30.33,SSW,213,16.0,21.0,14,-99.99,,,-99.99,,2013-10-05 18:28:00,
2013-10-05 11:36:00,72.0,0.0,30.33,SSW,201,16.0,20.0,13,-99.99,,,-99.99,,2013-10-05 18:36:00,
2013-10-05 11:44:00,72.0,0.0,30.33,SW,219,9.0,21.0,13,-99.99,,,-99.99,,2013-10-05 18:44:00,
2013-10-05 11:52:00,72.0,0.0,30.32,SE,129,10.0,25.0,11,-99.99,,,-99.99,,2013-10-05 18:52:00,
2013-10-05 12:00:00,73.0,0.0,30.32,SE,145,8.0,33.0,11,-99.99,,,-99.99,,2013-10-05 19:00:00,
2013-10-05 12:08:00,74.0,0.0,30.32,South,171,8.0,18.0,11,-99.99,,,-99.99,,2013-10-05 19:08:00,
2013-10-05 12:16:00,74.0,0.0,30.31,East,98,14.0,18.0,12,-99.99,,,-99.99,,2013-10-05 19:16:00,
2013-10-05 12:24:00,74.0,0.0,30.31,SSW,213,17.0,24.0,10,-99.99,,,-99.99,,2013-10-05 19:24:00,
2013-10-05 12:32:00,74.0,0.0,30.30,SW,220,23.0,28.0,12,-99.99,,,-99.99,,2013-10-05 19:32:00,
2013-10-05 12:40:00,73.0,0.0,30.30,SW,230,21.0,26.0,10,-99.99,,,-99.99,,2013-10-05 19:40:00,
2013-10-05 13:36:00,75.0,0.0,30.27,SW,226,15.0,23.0,11,-99.99,,,-99.99,,2013-10-05 20:36:00,
2013-10-05 13:44:00,76.0,0.0,30.26,SSW,201,14.0,25.0,9,-99.99,,,-99.99,,2013-10-05 20:44:00,
2013-10-05 13:52:00,75.0,0.0,30.26,SW,223,13.0,22.0,11,-99.99,,,-99.99,,2013-10-05 20:52:00,
2013-10-05 14:00:00,76.0,0.0,30.26,SW,219,12.0,21.0,14,-99.99,,,-99.99,,2013-10-05 21:00:00,
2013-10-05 14:08:00,75.0,0.0,30.26,WSW,240,16.0,22.0,12,-99.99,,,-99.99,,2013-10-05 21:08:00,
2013-10-05 14:16:00,76.0,0.0,30.25,SSW,207,15.0,22.0,14,-99.99,,,-99.99,,2013-10-05 21:16:00,
2013-10-05 14:24:00,76.0,0.0,30.25,SW,222,15.0,22.0,8,-99.99,,,-99.99,,2013-10-05 21:24:00,
2013-10-05 14:32:00,76.0,0.0,30.25,SW,235,13.0,22.0,8,-99.99,,,-99.99,,2013-10-05 21:32:00,
2013-10-05 14:40:00,76.0,0.0,30.24,SW,230,9.0,23.0,8,-99.99,,,-99.99,,2013-10-05 21:40:00,
2013-10-05 14:48:00,76.0,0.0,30.24,SSW,203,15.0,24.0,11,-99.99,,,-99.99,,2013-10-05 21:48:00,
2013-10-05 14:56:00,77.0,0.0,30.24,WSW,238,12.0,24.0,11,-99.99,,,-99.99,,2013-10-05 21:56:00,
2013-10-05 15:04:00,76.0,0.0,30.24,WSW,238,14.0,23.0,10,-99.99,,,-99.99,,2013-10-05 22:04:00,
2013-10-05 15:12:00,76.0,0.0,30.24,SW,231,16.0,22.0,12,-99.99,,,-99.99,,2013-10-05 22:12:00,
2013-10-05 15:20:00,76.0,0.0,30.23,SW,215,21.0,23.0,10,-99.99,,,-99.99,,2013-10-05 22:20:00,
2013-10-05 15:28:00,76.0,0.0,30.23,SSW,207,14.0,23.0,10,-99.99,,,-99.99,,2013-10-05 22:28:00,
2013-10-05 15:36:00,76.0,0.0,30.23,South,189,20.0,28.0,11,-99.99,,,-99.99,,2013-10-05 22:36:00,
2013-10-05 15:44:00,76.0,0.0,30.23,SSW,202,17.0,25.0,10,-99.99,,,-99.99,,2013-10-05 22:44:00,
2013-10-05 15:52:00,76.0,0.0,30.23,SSW,209,13.0,25.0,10,-99.99,,,-99.99,,2013-10-05 22:52:00,
2013-10-05 16:00:00,76.0,0.0,30.23,WSW,237,15.0,23.0,10,-99.99,,,-99.99,,2013-10-05 23:00:00,
2013-10-05 16:08:00,76.0,0.0,30.23,SSW,211,20.0,24.0,8,-99.99,,,-99.99,,2013-10-05 23:08:00,
2013-10-05 16:16:00,76.0,0.0,30.23,WSW,248,16.0,24.0,8,-99.99,,,-99.99,,2013-10-05 23:16:00,
2013-10-05 16:24:00,75.0,0.0,30.22,SW,235,14.0,21.0,10,-99.99,,,-99.99,,2013-10-05 23:24:00,
2013-10-05 16:32:00,75.0,0.0,30.22,SW,216,13.0,21.0,11,-99.99,,,-99.99,,2013-10-05 23:32:00,
2013-10-05 16:40:00,76.0,0.0,30.22,WSW,250,13.0,23.0,9,-99.99,,,-99.99,,2013-10-05 23:40:00,
2013-10-05 16:48:00,76.0,0.0,30.22,SW,234,18.0,20.0,9,-99.99,,,-99.99,,2013-10-05 23:48:00,
2013-10-05 16:56:00,75.0,0.0,30.22,WSW,251,18.0,20.0,9,-99.99,,,-99.99,,2013-10-05 23:56:00,
2013-10-05 17:04:00,75.0,0.0,30.22,SW,226,14.0,23.0,11,-99.99,,,-99.99,,2013-10-06 00:04:00,
2013-10-05 17:12:00,75.0,0.0,30.22,SSW,198,13.0,23.0,9,-99.99,,,-99.99,,2013-10-06 00:12:00,
2013-10-05 17:20:00,74.0,0.0,30.22,WSW,249,13.0,22.0,11,-99.99,,,-99.99,,2013-10-06 00:20:00,
2013-10-05 17:28:00,74.0,0.0,30.22,SW,234,10.0,18.0,11,-99.99,,,-99.99,,2013-10-06 00:28:00,
2013-10-05 17:36:00,74.0,0.0,30.22,SW,234,12.0,17.0,12,-99.99,,,-99.99,,2013-10-06 00:36:00,
2013-10-05 17:44:00,74.0,0.0,30.22,WSW,255,10.0,18.0,12,-99.99,,,-99.99,,2013-10-06 00:44:00,
2013-10-05 17:52:00,73.0,0.0,30.21,SW,228,14.0,20.0,11,-99.99,,,-99.99,,2013-10-06 00:52:00,
2013-10-05 18:00:00,73.0,0.0,30.21,SW,227,8.0,17.0,10,-99.99,,,-99.99,,2013-10-06 01:00:00,
2013-10-05 18:08:00,73.0,0.0,30.22,SW,226,8.0,14.0,13,-99.99,,,-99.99,,2013-10-06 01:08:00,
2013-10-05 18:16:00,72.0,0.0,30.22,SW,236,7.0,13.0,10,-99.99,,,-99.99,,2013-10-06 01:16:00,
2013-10-05 18:24:00,72.0,0.0,30.22,SW,232,7.0,13.0,15,-99.99,,,-99.99,,2013-10-06 01:24:00,
2013-10-05 18:32:00,72.0,0.0,30.22,WSW,246,9.0,14.0,11,-99.99,,,-99.99,,2013-10-06 01:32:00,
2013-10-05 18:40:00,70.0,0.0,30.22,SW,228,8.0,12.0,13,-99.99,,,-99.99,,2013-10-06 01:40:00,
2013-10-05 18:48:00,70.0,0.0,30.22,WSW,240,9.0,10.0,12,-99.99,,,-99.99,,2013-10-06 01:48:00,
2013-10-05 18:56:00,69.0,0.0,30.22,WSW,243,8.0,12.0,13,-99.99,,,-99.99,,2013-10-06 01:56:00,
2013-10-05 19:04:00,69.0,0.0,30.22,WSW,242,8.0,13.0,11,-99.99,,,-99.99,,2013-10-06 02:04:00,
2013-10-05 19:12:00,68.0,0.0,30.22,WSW,253,8.0,12.0,12,-99.99,,,-99.99,,2013-10-06 02:12:00,
2013-10-05 19:20:00,67.0,0.0,30.22,WSW,248,7.0,10.0,11,-99.99,,,-99.99,,2013-10-06 02:20:00,
2013-10-05 19:28:00,66.0,0.0,30.22,West,259,7.0,9.0,13,-99.99,,,-99.99,,2013-10-06 02:28:00,
2013-10-05 19:36:00,67.0,0.0,30.22,SW,236,7.0,10.0,14,-99.99,,,-99.99,,2013-10-06 02:36:00,
2013-10-05 19:44:00,66.0,0.0,30.23,WSW,247,7.0,10.0,12,-99.99,,,-99.99,,2013-10-06 02:44:00,
2013-10-05 19:52:00,65.0,0.0,30.22,WSW,249,5.0,8.0,12,-99.99,,,-99.99,,2013-10-06 02:52:00,
2013-10-05 20:00:00,65.0,0.0,30.23,WSW,241,6.0,8.0,14,-99.99,,,-99.99,,2013-10-06 03:00:00,
2013-10-05 20:08:00,65.0,0.0,30.23,WSW,243,8.0,9.0,14,-99.99,,,-99.99,,2013-10-06 03:08:00,
2013-10-05 20:16:00,65.0,0.0,30.23,WSW,256,5.0,10.0,14,-99.99,,,-99.99,,2013-10-06 03:16:00,
2013-10-05 20:24:00,65.0,0.0,30.23,WSW,251,2.0,7.0,14,-99.99,,,-99.99,,2013-10-06 03:24:00,
2013-10-05 20:32:00,64.0,0.0,30.23,West,264,2.0,6.0,14,-99.99,,,-99.99,,2013-10-06 03:32:00,
2013-10-05 20:40:00,64.0,0.0,30.23,WSW,246,3.0,6.0,16,-99.99,,,-99.99,,2013-10-06 03:40:00,
2013-10-05 20:48:00,65.0,0.0,30.23,WSW,239,8.0,9.0,14,-99.99,,,-99.99,,2013-10-06 03:48:00,
2013-10-05 20:56:00,65.0,0.0,30.23,WSW,243,7.0,9.0,13,-99.99,,,-99.99,,2013-10-06 03:56:00,
2013-10-05 21:04:00,65.0,0.0,30.23,WSW,246,6.0,10.0,14,-99.99,,,-99.99,,2013-10-06 04:04:00,
2013-10-05 21:09:00,64.0,0.0,30.23,WSW,245,9.0,10.0,12,-99.99,,,-99.99,,2013-10-06 04:09:00,
2013-10-05 21:16:00,64.0,0.0,30.23,WSW,248,6.0,12.0,15,-99.99,,,-99.99,,2013-10-06 04:16:00,
2013-10-05 21:20:00,64.0,0.0,30.23,WSW,254,8.0,10.0,15,-99.99,,,-99.99,,2013-10-06 04:20:00,
2013-10-05 21:28:00,63.0,0.0,30.24,WSW,258,5.0,8.0,15,-99.99,,,-99.99,,2013-10-06 04:28:00,
2013-10-05 21:36:00,64.0,0.0,30.23,WSW,247,6.0,9.0,13,-99.99,,,-99.99,,2013-10-06 04:36:00,
2013-10-05 21:44:00,64.0,0.0,30.23,WSW,248,7.0,12.0,14,-99.99,,,-99.99,,2013-10-06 04:44:00,
2013-10-05 21:52:00,64.0,0.0,30.24,WSW,249,8.0,12.0,13,-99.99,,,-99.99,,2013-10-06 04:52:00,
2013-10-05 22:00:00,63.0,0.0,30.24,West,264,1.0,9.0,13,-99.99,,,-99.99,,2013-10-06 05:00:00,
2013-10-05 22:08:00,62.0,0.0,30.24,NW,316,6.0,7.0,17,-99.99,,,-99.99,,2013-10-06 05:08:00,
2013-10-05 22:12:00,64.0,0.0,30.24,West,273,1.0,9.0,13,-99.99,,,-99.99,,2013-10-06 05:12:00,
2013-10-05 22:20:00,65.0,0.0,30.24,WSW,256,2.0,8.0,16,-99.99,,,-99.99,,2013-10-06 05:20:00,